sat.trackr.live / text

‹ back to catalog

STARLINK-31386

NORAD 59298 · 2024-056C

PAYLOAD ACTIVE UNKNOWN

§ Identity

Operator
Country
US
Launch date
2024-03-24
Launch site
AFETR
Launch vehicle
Mass (kg)
RCS (m²)

Purposes: comms

External: N2YO · Heavens-Above · Gunter

§ Orbital elements

Epoch: 2026-05-25T01:18:50.957280Z

Period
94.27 min
Inclination
43.0009°
Eccentricity
0.0001320
Mean motion
15.27577595 rev/d
Perigee alt
482.2 km
Apogee alt
484.0 km
Semi-major
6,861.2 km
B*
4.2534e-5
RAAN
159.4163°
Arg perigee
273.4561°
Mean anomaly
86.6139°
Rev number
12,283

§ Raw data

STARLINK-313861 59298U 24056C   26145.05475645  .00000908  00000+0  42534-4 0  99922 59298  43.0009 159.4163 0001320 273.4561  86.6139 15.27577595122836

JSON: /api/v1/satellites/59298 · /tle

For live sub-satellite position, see the globe view (requires WebGL).

§ Visibility from observer

Set your observer location to see the next 7 days of passes ≥ 10°. The values pass through the URL so the page stays shareable.

No JS? Fill the form by hand. The geolocation button needs JavaScript.